LFML

Marseille/Provence

Airport
ICAO code
LFML
Summary
ICAO Region
EUR
ICAO Territory
Location

Marseille, Provence-Alpes-Cote d' Azur,

Coordinates
43° 26' 5" N , 5° 12' 60" E
KCC
Metar
Observation
LFML 030230Z AUTO 10012KT 9999 ///TCU 10/04 Q1009 TEMPO VRB15G25KT 4000 RA OVC033
Station
Marseille / Marignane
Date/Time
2022-12-03 02:30:00
Wind direction
100°
Wind speed
12 kts
Lowest cloud amount
overcast
Temperature
10°C
Dew point
4°C
Humidity
66%
QNH
1009 hPa
Weather condition
n/a

Description

International airport serving Marseille.

Climatology

Dry-summer subtropical ”Mediterranean" climate (Köppen climate classification Csa) - characterized by hot, dry summers and mild winters. During the summer, subtropical high pressure cells dominate, making rainfall unlikely except for the occasional thunderstorm. In the winter, periodic storms bring rain.

Runways

Designator Length Width Surface Rops
13R/31L 2370 45 ASP Yes/Yes
14R/32L 2370 45 ASP Yes/Yes
13L/31R 3500 45 ASP Yes/Yes
14L/32R 3500 45 ASP Yes/Yes

Airport map

Aerial View

SKYbrary Partners:

Safety knowledge contributed by: